Airfield :
LOGIN :

Register | Disclaimer

   EN    FR    IT 

 










Legend :    VFR   Marginal VFR   IFR   Intensive IFR   Very Intensive IFR
Visi :
Ceiling :
>= 8 km
>= 3000ft
5 to 8 km
1000 to 3000 ft
1500m to 5 km
500 to 1000 ft
800 to 1500m
200 to 500 ft
< 800m
< 200 ft
Symbols :   Thunderstorms  Fog  Heavy snow  Heavy precipitations  Wind > 20 kt
SIGMETs :     Misc.  Thunderstorms  Icing  Turbulence  Mountain Waves  Volcanic Ashes






- Airport Elevation : 309 ft
- IATA code : FNI


LFTW - Nîmes Garons

CURRENT METAR :
  • 060100Z AUTO 05003KT CAVOK 06/05 Q1022

EXPIRED METARs :
  • 060030Z AUTO 06003KT CAVOK 07/06 Q1022
  • 060000Z AUTO 02001KT CAVOK 07/05 Q1022
  • 052330Z AUTO 34003KT CAVOK 08/04 Q1023
  • 052300Z AUTO 13004KT CAVOK 11/08 Q1023
  • 052230Z AUTO 16003KT CAVOK 10/07 Q1022

TAF TAF LFTW
Valid from the 05 at 15:00 until the 06 at 15:00 UTC


051400Z 0515/0615 18014KT CAVOK
BECMG 0518/0521 05004KT
BECMG 0609/0611 18015KT



MET'MAP, your aeronautical weather chart ! - Copyright ORBIFLY December 2007 - Disclaimer

ORBIFLY MET'MAP TEAM :

Programming & Development : Alexandra Zaïnal
Concept & original design : Baudouin d'Aumeries
Assistance for programming : Marc-Olivier Méhu
Technical & hardware support : Manuel Goepfert

Contact : metmap@orbifly.com




SOURCES & CREDITS :

   NOAA